TimePDT,TemperatureF,Dew PointF,Humidity,Sea Level PressureIn,VisibilityMPH,Wind Direction,Wind SpeedMPH,Gust SpeedMPH,PrecipitationIn,Events,Conditions,WindDirDegrees,DateUTC
12:53 AM,70.0,57.9,65,29.72,10.0,Calm,Calm,-,N/A,,Clear,0,2013-09-14 07:53:00
1:53 AM,69.1,57.0,65,29.71,10.0,Calm,Calm,-,N/A,,Clear,0,2013-09-14 08:53:00
2:53 AM,70.0,57.0,63,29.71,10.0,Calm,Calm,-,N/A,,Clear,0,2013-09-14 09:53:00
3:53 AM,66.9,57.0,70,29.71,10.0,Calm,Calm,-,N/A,,Clear,0,2013-09-14 10:53:00
4:53 AM,64.9,57.9,78,29.72,10.0,Calm,Calm,-,N/A,,Clear,0,2013-09-14 11:53:00
5:53 AM,64.9,57.0,75,29.73,10.0,Calm,Calm,-,N/A,,Clear,0,2013-09-14 12:53:00
6:53 AM,63.0,55.0,75,29.74,10.0,WNW,3.5,-,N/A,,Clear,300,2013-09-14 13:53:00
7:53 AM,66.9,55.9,68,29.75,10.0,Calm,Calm,-,N/A,,Clear,0,2013-09-14 14:53:00
8:53 AM,73.0,55.9,55,29.75,10.0,Calm,Calm,-,N/A,,Clear,0,2013-09-14 15:53:00
9:53 AM,79.0,55.9,45,29.76,10.0,Variable,3.5,-,N/A,,Clear,0,2013-09-14 16:53:00
10:53 AM,82.9,55.0,38,29.75,10.0,West,5.8,-,N/A,,Clear,280,2013-09-14 17:53:00
11:53 AM,86.0,55.0,35,29.74,10.0,NW,5.8,-,N/A,,Partly Cloudy,320,2013-09-14 18:53:00
12:53 PM,90.0,53.1,28,29.72,10.0,NW,8.1,-,N/A,,Partly Cloudy,310,2013-09-14 19:53:00
1:53 PM,91.9,53.1,27,29.70,10.0,WNW,8.1,-,N/A,,Scattered Clouds,300,2013-09-14 20:53:00
2:53 PM,93.0,52.0,25,29.68,10.0,NW,8.1,-,N/A,,Mostly Cloudy,310,2013-09-14 21:53:00
3:53 PM,95.0,52.0,23,29.66,10.0,NW,6.9,-,N/A,,Overcast,310,2013-09-14 22:53:00
4:53 PM,93.9,52.0,24,29.65,10.0,WNW,9.2,-,N/A,,Mostly Cloudy,300,2013-09-14 23:53:00
5:53 PM,91.9,51.1,25,29.65,10.0,WNW,10.4,-,N/A,,Mostly Cloudy,300,2013-09-15 00:53:00
6:53 PM,86.0,53.1,32,29.65,10.0,NW,6.9,-,N/A,,Overcast,310,2013-09-15 01:53:00
7:53 PM,80.1,55.0,42,29.66,10.0,NW,5.8,-,N/A,,Scattered Clouds,310,2013-09-15 02:53:00
8:53 PM,77.0,55.9,48,29.68,10.0,NW,6.9,-,N/A,,Partly Cloudy,310,2013-09-15 03:53:00
9:53 PM,73.0,57.0,57,29.69,10.0,WNW,9.2,-,N/A,,Clear,290,2013-09-15 04:53:00
10:53 PM,73.0,57.9,59,29.70,10.0,WNW,6.9,-,N/A,,Clear,300,2013-09-15 05:53:00
11:53 PM,70.0,57.0,63,29.71,10.0,WNW,8.1,-,N/A,,Clear,300,2013-09-15 06:53:00